TimeCST,TemperatureF,Dew PointF,Humidity,Sea Level PressureIn,VisibilityMPH,Wind Direction,Wind SpeedMPH,Gust SpeedMPH,PrecipitationIn,Events,Conditions,WindDirDegrees,DateUTC
12:15 AM,76.3,70.0,81,29.88,7.0,SSE,13.8,21.9,N/A,,Overcast,150,2013-01-29 06:15:00
12:35 AM,76.1,69.8,81,29.88,7.0,SSE,15.0,20.7,N/A,,Overcast,150,2013-01-29 06:35:00
12:55 AM,76.3,69.8,80,29.86,10.0,SSE,16.1,25.3,N/A,,Overcast,150,2013-01-29 06:55:00
1:15 AM,76.3,69.4,79,29.84,10.0,SSE,24.2,28.8,N/A,,Overcast,150,2013-01-29 07:15:00
1:35 AM,76.5,69.4,79,29.83,10.0,SSE,19.6,25.3,N/A,,Overcast,160,2013-01-29 07:35:00
1:55 AM,76.5,69.4,79,29.83,7.0,SSE,18.4,24.2,N/A,,Overcast,160,2013-01-29 07:55:00
2:15 AM,77.0,68.9,76,29.82,10.0,SSE,21.9,34.5,N/A,,Overcast,150,2013-01-29 08:15:00
2:35 AM,77.0,68.9,76,29.81,10.0,SSE,23.0,31.1,N/A,,Overcast,160,2013-01-29 08:35:00
2:55 AM,76.6,68.9,77,29.80,10.0,SSE,25.3,29.9,N/A,,Overcast,160,2013-01-29 08:55:00
3:15 AM,76.5,68.9,77,29.80,10.0,South,18.4,25.3,N/A,,Overcast,170,2013-01-29 09:15:00
3:35 AM,76.6,69.1,77,29.81,10.0,South,21.9,27.6,N/A,,Overcast,170,2013-01-29 09:35:00
3:55 AM,76.5,68.9,77,29.81,10.0,South,15.0,25.3,N/A,,Overcast,170,2013-01-29 09:55:00
4:15 AM,76.6,69.3,78,29.82,10.0,South,20.7,25.3,N/A,,Overcast,170,2013-01-29 10:15:00
4:35 AM,76.5,69.3,78,29.81,10.0,South,17.3,25.3,N/A,,Overcast,170,2013-01-29 10:35:00
4:55 AM,76.1,69.1,79,29.79,10.0,SSE,24.2,28.8,N/A,,Overcast,160,2013-01-29 10:55:00
5:15 AM,76.1,69.1,79,29.79,10.0,South,19.6,27.6,N/A,,Overcast,170,2013-01-29 11:15:00
5:35 AM,76.1,68.9,78,29.79,10.0,South,20.7,28.8,N/A,,Overcast,170,2013-01-29 11:35:00
5:55 AM,76.1,68.9,78,29.79,10.0,South,16.1,25.3,N/A,,Overcast,180,2013-01-29 11:55:00
6:15 AM,76.1,68.9,78,29.78,10.0,South,18.4,26.5,N/A,,Mostly Cloudy,170,2013-01-29 12:15:00
6:35 AM,75.6,68.5,79,29.77,10.0,SSE,20.7,31.1,N/A,,Scattered Clouds,160,2013-01-29 12:35:00
6:55 AM,75.2,68.5,80,29.78,10.0,South,20.7,-,N/A,,Clear,170,2013-01-29 12:55:00
7:15 AM,75.2,68.5,80,29.77,10.0,SSE,19.6,28.8,N/A,,Clear,160,2013-01-29 13:15:00
7:35 AM,75.2,68.4,79,29.78,10.0,SSE,24.2,29.9,N/A,,Clear,160,2013-01-29 13:35:00
7:55 AM,75.2,68.9,81,29.78,7.0,SSE,19.6,27.6,N/A,,Clear,160,2013-01-29 13:55:00
8:15 AM,75.9,68.9,79,29.78,10.0,South,18.4,29.9,N/A,,Clear,170,2013-01-29 14:15:00
8:35 AM,76.3,68.9,78,29.78,10.0,South,25.3,29.9,N/A,,Scattered Clouds,170,2013-01-29 14:35:00
8:55 AM,76.6,68.9,77,29.78,10.0,South,21.9,32.2,N/A,,Mostly Cloudy,170,2013-01-29 14:55:00
9:15 AM,77.4,68.5,74,29.78,10.0,South,27.6,33.4,N/A,,Overcast,170,2013-01-29 15:15:00
9:35 AM,78.4,68.7,72,29.78,10.0,South,25.3,34.5,N/A,,Overcast,170,2013-01-29 15:35:00
9:55 AM,78.8,68.2,70,29.79,10.0,South,26.5,35.7,N/A,,Mostly Cloudy,170,2013-01-29 15:55:00
10:15 AM,79.5,68.0,68,29.78,10.0,South,25.3,35.7,N/A,,Scattered Clouds,180,2013-01-29 16:15:00
10:35 AM,80.6,68.0,65,29.77,10.0,South,27.6,35.7,N/A,,Scattered Clouds,170,2013-01-29 16:35:00
10:55 AM,81.7,68.0,63,29.76,10.0,South,21.9,32.2,N/A,,Scattered Clouds,170,2013-01-29 16:55:00
11:15 AM,82.4,67.6,61,29.75,10.0,South,25.3,33.4,N/A,,Clear,170,2013-01-29 17:15:00
11:35 AM,83.5,67.6,59,29.74,10.0,South,23.0,32.2,N/A,,Clear,170,2013-01-29 17:35:00
11:55 AM,84.6,67.3,56,29.73,10.0,South,25.3,31.1,N/A,,Clear,180,2013-01-29 17:55:00
12:15 PM,85.8,66.7,53,29.71,10.0,South,19.6,28.8,N/A,,Clear,170,2013-01-29 18:15:00
12:35 PM,86.7,66.4,51,29.69,10.0,South,20.7,27.6,N/A,,Clear,180,2013-01-29 18:35:00
12:55 PM,86.9,66.0,50,29.68,10.0,South,19.6,26.5,N/A,,Clear,190,2013-01-29 18:55:00
1:15 PM,88.9,65.7,46,29.66,10.0,South,15.0,26.5,N/A,,Clear,170,2013-01-29 19:15:00
1:35 PM,89.1,64.6,44,29.65,10.0,South,17.3,23.0,N/A,,Clear,180,2013-01-29 19:35:00
1:55 PM,89.8,64.0,42,29.64,10.0,SSW,16.1,25.3,N/A,,Clear,210,2013-01-29 19:55:00
2:15 PM,90.7,64.0,41,29.63,10.0,SSW,17.3,23.0,N/A,,Clear,200,2013-01-29 20:15:00
2:35 PM,90.0,63.1,41,29.61,10.0,South,15.0,-,N/A,,Clear,190,2013-01-29 20:35:00
2:55 PM,90.1,63.5,41,29.60,10.0,South,15.0,19.6,N/A,,Clear,170,2013-01-29 20:55:00
3:15 PM,90.5,61.9,38,29.60,10.0,South,15.0,19.6,N/A,,Clear,180,2013-01-29 21:15:00
3:35 PM,90.9,61.0,37,29.60,10.0,South,15.0,18.4,N/A,,Clear,190,2013-01-29 21:35:00
3:55 PM,90.5,59.4,35,29.59,10.0,SSW,13.8,18.4,N/A,,Clear,200,2013-01-29 21:55:00
4:15 PM,90.7,57.7,33,29.59,10.0,SSW,11.5,-,N/A,,Clear,200,2013-01-29 22:15:00
4:35 PM,90.9,58.8,34,29.59,10.0,South,12.7,16.1,N/A,,Clear,190,2013-01-29 22:35:00
4:55 PM,91.0,60.1,35,29.58,10.0,South,17.3,-,N/A,,Clear,170,2013-01-29 22:55:00
5:15 PM,90.7,61.2,37,29.58,10.0,South,16.1,21.9,N/A,,Clear,170,2013-01-29 23:15:00
5:35 PM,89.2,61.3,39,29.58,10.0,South,11.5,-,N/A,,Clear,180,2013-01-29 23:35:00
5:55 PM,87.1,68.0,53,29.59,10.0,SSE,12.7,-,N/A,,Clear,150,2013-01-29 23:55:00
6:15 PM,85.3,68.5,57,29.59,10.0,SSE,16.1,-,N/A,,Clear,160,2013-01-30 00:15:00
6:35 PM,84.2,68.7,60,29.60,7.0,SSE,15.0,18.4,N/A,,Scattered Clouds,160,2013-01-30 00:35:00
6:55 PM,82.6,69.1,64,29.60,10.0,South,13.8,-,N/A,,Scattered Clouds,170,2013-01-30 00:55:00
7:15 PM,81.5,69.3,66,29.60,10.0,SSE,16.1,19.6,N/A,,Scattered Clouds,160,2013-01-30 01:15:00
7:35 PM,80.8,69.4,68,29.61,10.0,SSE,12.7,-,N/A,,Scattered Clouds,150,2013-01-30 01:35:00
7:55 PM,79.7,69.4,71,29.62,10.0,SSE,13.8,18.4,N/A,,Clear,150,2013-01-30 01:55:00
8:15 PM,78.8,69.8,74,29.62,10.0,SSE,17.3,21.9,N/A,,Clear,160,2013-01-30 02:15:00
8:35 PM,78.1,69.8,76,29.62,7.0,SSE,15.0,-,N/A,,Clear,160,2013-01-30 02:35:00
8:55 PM,77.9,70.0,76,29.63,10.0,South,16.1,21.9,N/A,,Clear,170,2013-01-30 02:55:00
9:15 PM,77.2,70.3,79,29.63,10.0,SSE,17.3,21.9,N/A,,Clear,160,2013-01-30 03:15:00
9:35 PM,77.0,70.7,81,29.64,10.0,South,11.5,21.9,N/A,,Clear,180,2013-01-30 03:35:00
9:55 PM,79.0,70.0,74,29.71,10.0,West,10.4,17.3,N/A,,Mostly Cloudy,270,2013-01-30 03:55:00
10:15 PM,77.5,49.3,37,29.72,10.0,North,12.7,20.7,N/A,,Mostly Cloudy,350,2013-01-30 04:15:00
10:35 PM,75.2,43.3,32,29.73,10.0,North,8.1,18.4,N/A,,Mostly Cloudy,350,2013-01-30 04:35:00
10:55 PM,74.5,42.6,32,29.73,10.0,North,8.1,-,N/A,,Mostly Cloudy,360,2013-01-30 04:55:00
11:15 PM,73.8,41.7,32,29.75,10.0,North,9.2,-,N/A,,Mostly Cloudy,360,2013-01-30 05:15:00
11:35 PM,73.4,40.5,30,29.76,10.0,North,9.2,-,N/A,,Overcast,360,2013-01-30 05:35:00
11:55 PM,73.0,39.4,30,29.76,10.0,North,9.2,-,N/A,,Overcast,360,2013-01-30 05:55:00